EA3ANS-1 Weather Reports


Display with metric or nautical units.
time (UTC)temp
F
wind
direction
speed
MPH
gust
MPH
rain 1hr
in
rain 24hr
in
rain mn
in
humidity
%
barometer
mb
20260503210305 62 124 2.0 1.0 0.00 0.00 0.02 1014.1
20260503205255 61 205 2.0 2.0 0.00 0.00 0.02 1014.1
20260503204246 61 233 0.0 0.0 0.00 0.00 0.02 1014.1
20260503203245 62 239 0.0 0.0 0.00 0.00 0.02 1014.0
20260503202241 62 239 0.0 0.0 0.00 0.00 0.02 1014.0
20260503201241 61 221 0.0 0.0 0.00 0.00 0.02 1014.1
20260503200243 61 221 0.0 0.0 0.00 0.00 0.02 1014.1
20260503195243 61 187 1.0 1.0 0.00 0.00 0.02 1014.0
20260503194241 61 181 0.0 3.0 0.00 0.00 0.02 1014.0
20260503193243 61 224 3.0 2.0 0.00 0.00 0.02 1013.9
20260503192245 61 132 3.0 3.0 0.00 0.00 0.02 1013.7
20260503191241 62 181 3.0 3.0 0.00 0.00 0.02 1013.6
20260503190243 62 120 2.0 4.0 0.00 0.00 0.02 1013.6
20260503185243 62 129 4.0 5.0 0.00 0.00 0.02 1013.5
20260503184242 62 122 3.0 4.0 0.00 0.00 0.02 1013.5
20260503183244 62 124 4.0 3.0 0.00 0.00 0.02 1013.5
20260503182246 63 127 3.0 2.0 0.00 0.00 0.02 1013.6
20260503181248 63 212 4.0 2.0 0.00 0.00 0.02 1013.3
20260503180243 62 153 3.0 5.0 0.00 0.00 0.02 1013.3
20260503175243 63 89 3.0 1.0 0.00 0.00 0.02 1013.6
20260503174243 63 150 4.0 5.0 0.00 0.00 0.02 1013.6
20260503173243 63 82 3.0 3.0 0.00 0.00 0.02 1013.3
20260503172246 63 128 4.0 2.0 0.00 0.00 0.02 1013.1
20260503171248 63 73 6.0 7.0 0.00 0.00 0.02 1013.1
20260503170251 63 91 5.0 4.0 0.00 0.00 0.02 1013.1
20260503150244 66 96 4.0 1.0 0.00 0.00 0.02 1012.9
20260503140240 67 107 4.0 5.0 0.00 0.00 0.02 1013.9
20260503131246 67 205 7.0 2.0 0.00 0.00 0.02 1014.8
20260503130248 67 128 4.0 6.0 0.00 0.00 0.02 1014.9
20260503110242 63 103 5.0 5.0 0.02 0.00 0.02 1015.8
20260503100248 66 128 4.0 4.0 0.00 0.00 0.00 1016.3
20260503090245 65 132 3.0 5.0 0.00 0.00 0.00 1016.0
20260503081249 65 82 5.0 6.0 0.00 0.00 0.00 1016.2
20260503080252 65 90 5.0 8.0 0.00 0.00 0.00 1016.2
20260503072244 63 79 5.0 3.0 0.00 0.00 0.00 1016.2
20260503071244 63 97 5.0 4.0 0.00 0.00 0.00 1016.4
20260503070243 63 70 1.0 5.0 0.00 0.00 0.00 1016.2
20260503060241 62 76 0.0 2.0 0.00 0.00 0.00 1016.0
20260503054244 61 266 0.0 0.0 0.00 0.00 0.00 1016.0
20260503053247 61 69 0.0 0.0 0.00 0.00 0.00 1015.8
20260503052248 62 80 1.0 2.0 0.00 0.00 0.00 1015.8
20260503051245 62 63 2.0 2.0 0.00 0.00 0.00 1016.1
20260503050243 62 65 1.0 1.0 0.00 0.00 0.00 1016.2
20260503045246 61 32 3.0 2.0 0.00 0.00 0.00 1016.2
20260503044248 62 45 3.0 3.0 0.00 0.00 0.00 1015.8
20260503043251 62 76 4.0 4.0 0.00 0.00 0.00 1016.1
20260503042254 62 80 2.0 3.0 0.00 0.00 0.00 1016.1
20260503041255 62 0 0.0 0.0 0.00 0.00 0.00 1016.2
20260503040250 62 0 0.0 0.0 0.00 0.00 0.00 1016.3
20260503035252 62 0 0.0 0.0 0.00 0.00 0.00 1016.4
20260503034255 62 0 0.0 0.0 0.00 0.00 0.00 1016.5
20260503033257 62 0 0.0 0.0 0.00 0.00 0.00 1016.7
20260503032300 61 72 2.0 1.0 0.00 0.00 0.00 1016.7
20260503031303 62 14 3.0 2.0 0.00 0.00 0.00 1016.7
20260503030305 62 62 3.0 3.0 0.00 0.00 0.00 1016.7
20260503025258 62 69 4.0 5.0 0.00 0.00 0.00 1016.8
20260503024300 62 218 1.0 1.0 0.00 0.00 0.00 1016.9
20260503023300 62 38 0.0 1.0 0.00 0.00 0.00 1017.0
20260503022304 62 111 0.0 0.0 0.00 0.00 0.00 1017.0
20260503021305 62 153 0.0 0.0 0.00 0.00 0.00 1016.9
20260503020308 62 84 2.0 3.0 0.00 0.00 0.00 1017.0
20260503015310 62 110 1.0 0.0 0.00 0.00 0.00 1017.1
20260503014302 62 135 2.0 2.0 0.00 0.00 0.00 1017.1
20260503013305 62 150 2.0 2.0 0.00 0.00 0.00 1017.1
20260503012308 63 143 2.0 3.0 0.00 0.00 0.00 1017.2
20260503011310 62 105 3.0 2.0 0.00 0.00 0.00 1017.3
20260503010308 63 53 2.0 1.0 0.00 0.00 0.00 1017.2
20260503005310 62 108 3.0 4.0 0.00 0.00 0.00 1017.4
20260503004313 63 45 4.0 4.0 0.00 0.00 0.00 1017.7
20260503003308 63 91 4.0 2.0 0.00 0.00 0.00 1017.9
20260503002311 63 84 4.0 7.0 0.00 0.00 0.00 1018.0
20260503001310 62 56 4.0 2.0 0.00 0.00 0.00 1018.2
20260503000312 63 63 4.0 3.0 0.00 0.00 0.00 1018.3
20260502235315 63 79 0.0 0.0 0.00 0.00 0.00 1018.3
20260502234316 63 90 2.0 4.0 0.00 0.00 0.00 1018.3
20260502233319 62 49 4.0 4.0 0.00 0.00 0.00 1018.4
20260502232315 63 91 4.0 2.0 0.00 0.00 0.00 1018.5
20260502231318 63 73 6.0 4.0 0.00 0.00 0.00 1018.5
20260502230301 63 98 5.0 5.0 0.00 0.00 0.00 1018.4
20260502225304 63 83 5.0 6.0 0.00 0.00 0.00 1018.5
20260502224307 63 118 5.0 3.0 0.00 0.00 0.00 1018.5
20260502223309 63 94 5.0 6.0 0.00 0.00 0.00 1018.5
20260502222312 62 132 3.0 3.0 0.00 0.00 0.00 1018.5
20260502221308 63 68 7.0 7.0 0.00 0.00 0.00 1018.5
20260502220301 63 62 3.0 3.0 0.00 0.00 0.00 1018.5
20260502215305 63 35 2.0 2.0 0.00 0.00 0.00 1018.8
20260502214302 63 66 3.0 5.0 0.00 0.00 0.00 1018.8
20260502213259 63 113 4.0 5.0 0.00 0.00 0.00 1018.9
20260502212301 63 122 4.0 3.0 0.00 0.00 0.00 1019.0
20260502211303 63 37 3.0 2.0 0.00 0.00 0.00 1019.0